Location: Cheyres
(46.8153°N, 6.7877°E)
Time: 12:23:08
(UTC+00:00)

Cosmos 1862 Rocket - Pass Details

Date: 11 May 2021
Orbit: 604 x 633 km, 82.5° (Epoch: 19 June)

Event Time Altitude Azimuth Distance (km) Brightness Sun altitude
Exits shadow 22:10:38 53° 88° (E) 750 3.8 -22.7°
Drops below altitude 10° 22:14:45 10° 18° (NNE) 1,964 6.8 -22.9°
Sets 22:17:00 0° 14° (NNE) 2,872 7.9 -23.1°
